Richmond Raaf, Australia

3:43 PM AEDT on January 18, 2017 (GMT +1100)
Richmond (Military)

Weather History for YSRI - August, 2013

Change the Weather History Date:

Monday, August 12, 2013

  Actual Average Record
Temperature  
Mean Temperature 61 °F -  
Max Temperature 80 °F 68 °F - ()
Min Temperature 42 °F 43 °F - ()
Degree Days  
Heating Degree Days 4    
Growing Degree Days 11 (Base 50)    
Moisture  
Dew Point 41 °F    
Average Humidity 63    
Maximum Humidity 100    
Minimum Humidity 23    
Precipitation  
Precipitation 0.00 in 0.07 in - ()
Sea Level Pressure  
Sea Level Pressure 29.74 in    
Wind  
Wind Speed 7 mph ()    
Max Wind Speed 38 mph    
Max Gust Speed 48 mph    
Visibility 6.0 miles    
Events      
T = Trace of Precipitation, MM = Missing Value Source: Averaged Metar Reports

Daily Weather History Graph

Daily Weather History Graph

Search for Another Location

Airport or City:

Trip Planner

Search our weather history database for the weather conditions in past years. The results will help you decide how hot, cold, wet, or windy it might be!

Date:

Astronomy

Aug. 12, 2013 Rise Set
Actual Time 6:38 AM AEST 5:25 PM AEST
Civil Twilight 6:13 AM AEST 5:51 PM AEST
Nautical Twilight 5:43 AM AEST 6:20 PM AEST
Astronomical Twilight 5:14 AM AEST 6:49 PM AEST
Moon 9:16 AM AEST (8/12) 10:36 PM AEST (8/12)
Length of Visible Light 11h 38m
Length of Day
10h 46m
Waxing Crescent, 25% of the Moon is Illuminated
Aug 12
Waxing Crescent
Aug 14
First Quarter
Aug 21
Full
Aug 28
Last Quarter
Sep 5
New

Hourly Weather History & Observations

Time (AEST) Temp. Windchill Dew Point Humidity Pressure Visibility Wind Dir Wind Speed Gust Speed Precip Events Conditions
12:00 AM 46.4 °F - 46.4 °F 100% 29.86 in 6.2 mi Calm Calm - N/A   Unknown
12:30 AM 44.6 °F - 44.6 °F 100% 29.86 in 6.2 mi Calm Calm - N/A   Unknown
1:00 AM 44.6 °F - 44.6 °F 100% 29.86 in 6.2 mi Calm Calm - N/A   Unknown
1:15 AM 46.4 °F - 46.4 °F 100% 29.86 in 3.1 mi Calm Calm - N/A   Unknown
1:30 AM 46.4 °F - 46.4 °F 100% 29.83 in 6.2 mi Calm Calm - N/A   Unknown
1:33 AM 46.4 °F - 46.4 °F 100% 29.83 in 6.2 mi Calm Calm - N/A   Unknown
2:00 AM 46.4 °F - 46.4 °F 100% 29.83 in 3.7 mi Calm Calm - N/A   Unknown
2:15 AM 46.4 °F - 46.4 °F 100% 29.83 in 5.6 mi Calm Calm - N/A   Unknown
2:30 AM 46.4 °F - 46.4 °F 100% 29.80 in 6.2 mi Calm Calm - N/A   Unknown
2:46 AM 46.4 °F - 44.6 °F 93% 29.80 in - Calm Calm - N/A   Unknown
3:00 AM 44.6 °F 43.1 °F 44.6 °F 100% 29.80 in 6.2 mi NNE 3.5 mph - N/A   Unknown
3:09 AM 46.4 °F 43.5 °F 46.4 °F 100% 29.80 in 5.0 mi North 5.8 mph - N/A   Unknown
3:10 AM 46.4 °F 43.5 °F 46.4 °F 100% 29.77 in 3.7 mi North 5.8 mph - N/A   Unknown
3:28 AM 48.2 °F - 48.2 °F 100% 29.77 in 6.2 mi NNE 8.1 mph - N/A   Unknown
3:30 AM 48.2 °F - 48.2 °F 100% 29.77 in 6.2 mi NNE 6.9 mph - N/A   Unknown
4:00 AM 44.6 °F - 44.6 °F 100% 29.77 in 6.2 mi South 2.3 mph - N/A   Unknown
4:28 AM 42.8 °F - 42.8 °F 100% 29.77 in 3.7 mi Calm Calm - N/A   Unknown
4:30 AM 44.6 °F - 44.6 °F 100% 29.77 in 3.7 mi Calm Calm - N/A   Unknown
4:46 AM 44.6 °F - 44.6 °F 100% 29.77 in 6.2 mi Calm Calm - N/A   Unknown
5:00 AM 44.6 °F - 44.6 °F 100% 29.77 in 6.2 mi Calm Calm - N/A   Unknown
5:16 AM 44.6 °F - 44.6 °F 100% 29.74 in - Calm Calm - N/A   Unknown
5:30 AM 46.4 °F 44.3 °F 46.4 °F 100% 29.74 in 6.2 mi NW 4.6 mph - N/A   Unknown
5:35 AM 46.4 °F 42.4 °F 46.4 °F 100% 29.74 in 6.2 mi NNW 8.1 mph - N/A   Unknown
6:00 AM 50.0 °F - 46.4 °F 87% 29.74 in 6.2 mi North 6.9 mph - N/A   Unknown
6:30 AM 46.4 °F - 44.6 °F 93% 29.74 in 6.2 mi Calm Calm - N/A   Scattered Clouds
7:00 AM 44.6 °F - 44.6 °F 100% 29.74 in 6.2 mi SSW 2.3 mph - N/A   Scattered Clouds
7:30 AM 46.4 °F - 46.4 °F 100% 29.74 in 6.2 mi West 1.2 mph - N/A   Unknown
8:00 AM 48.2 °F - 48.2 °F 100% 29.74 in 6.2 mi Calm Calm - N/A   Unknown
8:30 AM 51.8 °F - 48.2 °F 88% 29.71 in 6.2 mi West 1.2 mph - N/A   Unknown
9:00 AM 59.0 °F - 50.0 °F 72% 29.71 in 6.2 mi NE 6.9 mph - N/A   Unknown
9:30 AM 62.6 °F - 50.0 °F 63% 29.68 in 6.2 mi Calm Calm - N/A   Unknown
10:00 AM 68.0 °F - 46.4 °F 46% 29.65 in 6.2 mi NNE 9.2 mph - N/A   Unknown
10:30 AM 73.4 °F - 42.8 °F 33% 29.65 in 6.2 mi NE 10.4 mph - N/A   Unknown
11:00 AM 78.8 °F - 41.0 °F 26% 29.62 in 6.2 mi West 13.8 mph 25.3 mph N/A   Unknown
11:10 AM 78.8 °F - 37.4 °F 23% 29.62 in 6.2 mi WNW 23.0 mph - N/A   Unknown
11:14 AM 80.6 °F - 39.2 °F 23% 29.62 in 6.2 mi WNW 20.7 mph 32.2 mph N/A   Unknown
11:30 AM 78.8 °F - 37.4 °F 23% 29.62 in 6.2 mi WNW 26.5 mph 38.0 mph N/A   Unknown
12:00 PM 77.0 °F - 37.4 °F 24% 29.62 in 6.2 mi WNW 21.9 mph 33.4 mph N/A   Unknown
12:30 PM 75.2 °F - 37.4 °F 25% 29.59 in 6.2 mi WNW 24.2 mph 42.6 mph N/A   Unknown
12:47 PM 75.2 °F - 37.4 °F 25% 29.62 in 6.2 mi West 20.7 mph 38.0 mph N/A   Unknown
12:49 PM 73.4 °F - 35.6 °F 25% 29.62 in 6.2 mi WSW 24.2 mph 38.0 mph N/A   Unknown
1:00 PM 73.4 °F - 37.4 °F 27% 29.62 in 6.2 mi West 23.0 mph 39.1 mph N/A   Unknown
1:30 PM 69.8 °F - 41.0 °F 35% 29.68 in 6.2 mi WSW 28.8 mph 42.6 mph N/A   Unknown
1:49 PM 68.0 °F - 42.8 °F 40% 29.68 in 6.2 mi West 15.0 mph 38.0 mph N/A   Unknown
2:00 PM 68.0 °F - 41.0 °F 37% 29.68 in 6.2 mi West 17.3 mph 33.4 mph N/A   Unknown
2:26 PM 66.2 °F - 42.8 °F 43% 29.68 in 6.2 mi West 21.9 mph 48.3 mph N/A   Unknown
2:27 PM 66.2 °F - 42.8 °F 43% 29.68 in 6.2 mi West 38.0 mph - N/A   Unknown
2:28 PM 66.2 °F - 42.8 °F 43% 29.68 in 6.2 mi West 35.7 mph 48.3 mph N/A   Unknown
2:30 PM 66.2 °F - 42.8 °F 43% 29.68 in 6.2 mi West 35.7 mph 48.3 mph N/A   Unknown
2:46 PM 64.4 °F - 44.6 °F 49% 29.68 in 6.2 mi West 23.0 mph 44.9 mph N/A   Unknown
3:00 PM 64.4 °F - 44.6 °F 49% 29.68 in 6.2 mi WNW 21.9 mph - N/A   Scattered Clouds
3:19 PM 64.4 °F - 42.8 °F 45% 29.68 in 6.2 mi WNW 21.9 mph 33.4 mph N/A   Scattered Clouds
3:30 PM 66.2 °F - 41.0 °F 40% 29.68 in 6.2 mi WNW 21.9 mph 38.0 mph N/A   Unknown
4:00 PM 64.4 °F - 41.0 °F 42% 29.65 in 6.2 mi NW 25.3 mph 39.1 mph N/A   Unknown
4:39 PM 64.4 °F - 41.0 °F 42% 29.68 in 6.2 mi WNW 19.6 mph 31.1 mph N/A   Unknown
5:00 PM 64.4 °F - 41.0 °F 42% 29.68 in 6.2 mi WNW 13.8 mph - N/A   Unknown
5:23 PM 64.4 °F - 41.0 °F 42% 29.71 in 6.2 mi WNW 17.3 mph 31.1 mph N/A   Unknown
5:30 PM 64.4 °F - 41.0 °F 42% 29.71 in 6.2 mi WNW 21.9 mph 33.4 mph N/A   Unknown
6:00 PM 62.6 °F - 41.0 °F 45% 29.74 in 6.2 mi West 16.1 mph - N/A   Unknown
6:30 PM 62.6 °F - 41.0 °F 45% 29.77 in 6.2 mi West 17.3 mph - N/A   Unknown
6:59 PM 62.6 °F - 33.8 °F 34% 29.80 in 6.2 mi WSW 17.3 mph 28.8 mph N/A   Unknown
7:00 PM 62.6 °F - 33.8 °F 34% 29.80 in 6.2 mi WSW 18.4 mph 32.2 mph N/A   Unknown
7:30 PM 60.8 °F - 33.8 °F 36% 29.83 in 6.2 mi West 15.0 mph - N/A   Unknown
8:00 PM 59.0 °F - 30.2 °F 34% 29.83 in 6.2 mi West 16.1 mph - N/A   Unknown
8:30 PM 59.0 °F - 28.4 °F 31% 29.83 in 6.2 mi West 13.8 mph - N/A   Unknown
9:00 PM 55.4 °F - 26.6 °F 33% 29.83 in 6.2 mi West 11.5 mph - N/A   Unknown
9:30 PM 51.8 °F - 26.6 °F 38% 29.83 in 6.2 mi West 11.5 mph - N/A   Unknown
10:00 PM 51.8 °F - 26.6 °F 38% 29.86 in 6.2 mi ENE 10.4 mph - N/A   Unknown
10:30 PM 51.8 °F - 24.8 °F 35% 29.86 in 6.2 mi North 8.1 mph - N/A   Unknown
11:00 PM 48.2 °F - 26.6 °F 43% 29.86 in 6.2 mi North 8.1 mph - N/A   Unknown
11:30 PM 48.2 °F - 24.8 °F 40% 29.86 in 6.2 mi North 6.9 mph - N/A   Unknown